SHT14H EGLL-EGJB

Flight info

Callsign SHT14H
Flight time 0h 42m
Altitude 20000
Route GASGU2J GASGU N866 SAM N63 LELNA DCT
Aircraft A319/M-SDE3FGIJ1KRWXY/LB1

Departure

Time 2026-04-30 12:08
Airport London Heathrow Airport (EGLL)

Arrival

Time 2026-04-30 12:50
Airport Guernsey Airport (EGJB)
Time Latitude Longitude Altitude Speed Heading
2026-04-30 11:16 51.46836 -0.48619 86 ft 0 kts 180°
2026-04-30 12:00 51.46838 -0.48619 86 ft 2 kts 180°
2026-04-30 12:00 51.46857 -0.48620 86 ft 2 kts 180°
2026-04-30 12:00 51.46873 -0.48615 86 ft 3 kts 240°
2026-04-30 12:00 51.46877 -0.48585 86 ft 3 kts 269°
2026-04-30 12:01 51.46877 -0.48569 86 ft 0 kts 269°
2026-04-30 12:04 51.46877 -0.48570 86 ft 1 kts 269°
2026-04-30 12:04 51.46877 -0.48615 88 ft 7 kts 269°
2026-04-30 12:04 51.46876 -0.48718 86 ft 7 kts 269°
2026-04-30 12:04 51.46839 -0.48751 89 ft 9 kts 174°
2026-04-30 12:05 51.46762 -0.48749 86 ft 12 kts 180°
2026-04-30 12:05 51.46708 -0.48749 88 ft 9 kts 179°
2026-04-30 12:05 51.46656 -0.48747 86 ft 8 kts 178°
2026-04-30 12:05 51.46609 -0.48761 86 ft 1 kts 200°
2026-04-30 12:06 51.46599 -0.48767 86 ft 0 kts 200°
2026-04-30 12:07 51.46595 -0.48769 86 ft 3 kts 200°
2026-04-30 12:07 51.46559 -0.48787 89 ft 8 kts 192°
2026-04-30 12:07 51.46495 -0.48752 86 ft 12 kts 138°
2026-04-30 12:07 51.46479 -0.48566 86 ft 26 kts 89°
2026-04-30 12:08 51.46479 -0.47937 87 ft 90 kts 90°
2026-04-30 12:08 51.46485 -0.46611 131 ft 141 kts 89°
2026-04-30 12:08 51.46491 -0.45057 861 ft 139 kts 91°
2026-04-30 12:08 51.46509 -0.43495 1561 ft 144 kts 90°
2026-04-30 12:09 51.46460 -0.41777 1991 ft 166 kts 105°
2026-04-30 12:09 51.45848 -0.40061 2416 ft 194 kts 124°
2026-04-30 12:09 51.45019 -0.38192 2970 ft 218 kts 124°
2026-04-30 12:09 51.44102 -0.36105 3735 ft 236 kts 125°
2026-04-30 12:10 51.42988 -0.34154 4839 ft 241 kts 142°
2026-04-30 12:10 51.41473 -0.32993 5939 ft 247 kts 163°
2026-04-30 12:10 51.39728 -0.32858 6912 ft 258 kts 186°
2026-04-30 12:10 51.38027 -0.33907 7827 ft 271 kts 209°
2026-04-30 12:11 51.36560 -0.35907 8773 ft 280 kts 218°
2026-04-30 12:11 51.35112 -0.38024 9727 ft 284 kts 218°
2026-04-30 12:11 51.33631 -0.40178 10506 ft 295 kts 217°
2026-04-30 12:11 51.31992 -0.42344 10819 ft 321 kts 220°
2026-04-30 12:12 51.30623 -0.45320 11312 ft 343 kts 238°
2026-04-30 12:12 51.29718 -0.48904 12049 ft 353 kts 249°
2026-04-30 12:12 51.28997 -0.52679 12825 ft 358 kts 250°
2026-04-30 12:12 51.28305 -0.56521 13603 ft 362 kts 251°
2026-04-30 12:13 51.27608 -0.60409 14319 ft 366 kts 250°
2026-04-30 12:13 51.26889 -0.64265 15009 ft 369 kts 250°
2026-04-30 12:13 51.26133 -0.68198 15712 ft 371 kts 249°
2026-04-30 12:13 51.25360 -0.72147 16427 ft 374 kts 249°
2026-04-30 12:14 51.24570 -0.76166 17143 ft 377 kts 248°
2026-04-30 12:14 51.23782 -0.80167 17854 ft 379 kts 248°
2026-04-30 12:14 51.22990 -0.84192 18548 ft 382 kts 248°
2026-04-30 12:14 51.22192 -0.88252 19144 ft 385 kts 248°
2026-04-30 12:15 51.21325 -0.92262 19703 ft 386 kts 242°
2026-04-30 12:15 51.20078 -0.96031 20086 ft 385 kts 232°
2026-04-30 12:15 51.18456 -0.99391 20177 ft 379 kts 222°
2026-04-30 12:15 51.16576 -1.02321 20193 ft 378 kts 218°
2026-04-30 12:16 51.14680 -1.05208 20192 ft 378 kts 218°
2026-04-30 12:16 51.12777 -1.08116 20193 ft 378 kts 219°
2026-04-30 12:16 51.10887 -1.11014 20194 ft 378 kts 219°
2026-04-30 12:16 51.08995 -1.13920 20195 ft 378 kts 219°
2026-04-30 12:17 51.05212 -1.19735 20194 ft 378 kts 219°
2026-04-30 12:17 51.03319 -1.22641 20191 ft 378 kts 219°
2026-04-30 12:17 51.01424 -1.25541 20192 ft 378 kts 219°
2026-04-30 12:18 50.99520 -1.28439 20192 ft 378 kts 218°
2026-04-30 12:18 50.97618 -1.31323 20193 ft 378 kts 218°
2026-04-30 12:18 50.95639 -1.34073 20191 ft 374 kts 211°
2026-04-30 12:18 50.93470 -1.36176 20191 ft 368 kts 202°
2026-04-30 12:19 50.91178 -1.37993 20192 ft 368 kts 202°
2026-04-30 12:19 50.88882 -1.39815 20191 ft 368 kts 202°
2026-04-30 12:19 50.87337 -1.41044 20203 ft 368 kts 202°
2026-04-30 12:19 50.84308 -1.43461 20206 ft 368 kts 201°
2026-04-30 12:20 50.82786 -1.44675 20202 ft 368 kts 201°
2026-04-30 12:20 50.80496 -1.46501 20196 ft 368 kts 201°
2026-04-30 12:20 50.78201 -1.48327 20195 ft 368 kts 201°
2026-04-30 12:20 50.75910 -1.50146 20191 ft 369 kts 201°
2026-04-30 12:21 50.73618 -1.51961 20177 ft 368 kts 201°
2026-04-30 12:21 50.71327 -1.53773 20177 ft 368 kts 201°
2026-04-30 12:21 50.69035 -1.55583 20172 ft 368 kts 201°
2026-04-30 12:21 50.66747 -1.57387 20171 ft 368 kts 201°
2026-04-30 12:22 50.64450 -1.59201 20174 ft 369 kts 201°
2026-04-30 12:22 50.62157 -1.61012 20193 ft 369 kts 201°
2026-04-30 12:22 50.59869 -1.62817 20186 ft 369 kts 201°
2026-04-30 12:22 50.57566 -1.64637 20178 ft 369 kts 201°
2026-04-30 12:23 50.55272 -1.66446 20179 ft 369 kts 201°
2026-04-30 12:23 50.52981 -1.68245 20177 ft 369 kts 201°
2026-04-30 12:23 50.50685 -1.70048 20174 ft 369 kts 201°
2026-04-30 12:23 50.48388 -1.71847 20168 ft 369 kts 201°
2026-04-30 12:24 50.46092 -1.73643 20166 ft 367 kts 201°
2026-04-30 12:24 50.43842 -1.75409 20020 ft 357 kts 201°
2026-04-30 12:24 50.41638 -1.77141 19681 ft 352 kts 201°
2026-04-30 12:24 50.39453 -1.78847 19293 ft 350 kts 201°
2026-04-30 12:25 50.37279 -1.80536 18907 ft 348 kts 201°
2026-04-30 12:25 50.35119 -1.82211 18525 ft 345 kts 201°
2026-04-30 12:25 50.32972 -1.83874 18091 ft 343 kts 201°
2026-04-30 12:25 50.30838 -1.85526 17656 ft 341 kts 201°
2026-04-30 12:26 50.28714 -1.87170 17239 ft 339 kts 201°
2026-04-30 12:26 50.26639 -1.88779 16817 ft 336 kts 201°
2026-04-30 12:26 50.24548 -1.90402 16390 ft 335 kts 201°
2026-04-30 12:26 50.22468 -1.92017 15965 ft 333 kts 201°
2026-04-30 12:27 50.20393 -1.93626 15536 ft 331 kts 201°
2026-04-30 12:27 50.18339 -1.95219 15125 ft 330 kts 201°
2026-04-30 12:27 50.16283 -1.96809 14720 ft 329 kts 202°
2026-04-30 12:27 50.14240 -1.98379 14317 ft 327 kts 202°
2026-04-30 12:28 50.12199 -1.99944 13912 ft 326 kts 202°
2026-04-30 12:28 50.10162 -2.01506 13476 ft 324 kts 202°
2026-04-30 12:28 50.08139 -2.03060 13062 ft 322 kts 202°
2026-04-30 12:28 50.06142 -2.04599 12646 ft 320 kts 202°
2026-04-30 12:29 50.04154 -2.06130 12242 ft 318 kts 202°
2026-04-30 12:29 50.02171 -2.07656 11842 ft 317 kts 202°
2026-04-30 12:29 50.00211 -2.09183 11467 ft 316 kts 204°
2026-04-30 12:29 49.98322 -2.10941 11105 ft 315 kts 209°
2026-04-30 12:30 49.96525 -2.12785 10767 ft 310 kts 208°
2026-04-30 12:30 49.94707 -2.14583 10542 ft 302 kts 208°
2026-04-30 12:30 49.92979 -2.16291 10410 ft 294 kts 209°
2026-04-30 12:30 49.91274 -2.17972 10221 ft 287 kts 208°
2026-04-30 12:31 49.89590 -2.19574 10052 ft 282 kts 208°
2026-04-30 12:31 49.87932 -2.21172 9831 ft 279 kts 208°
2026-04-30 12:31 49.86296 -2.22781 9597 ft 278 kts 209°
2026-04-30 12:31 49.84668 -2.24384 9319 ft 276 kts 208°
2026-04-30 12:32 49.83022 -2.25903 9038 ft 275 kts 206°
2026-04-30 12:32 49.81367 -2.27367 8840 ft 271 kts 206°
2026-04-30 12:32 49.79747 -2.28796 8670 ft 266 kts 206°
2026-04-30 12:32 49.78137 -2.30207 8397 ft 265 kts 206°
2026-04-30 12:33 49.76524 -2.31607 8124 ft 266 kts 206°
2026-04-30 12:33 49.74914 -2.33011 7812 ft 267 kts 206°
2026-04-30 12:33 49.73300 -2.34448 7501 ft 269 kts 206°
2026-04-30 12:33 49.71680 -2.35907 7200 ft 270 kts 207°
2026-04-30 12:34 49.70057 -2.37345 6985 ft 267 kts 206°
2026-04-30 12:34 49.68477 -2.38750 6763 ft 265 kts 207°
2026-04-30 12:34 49.66883 -2.40165 6543 ft 262 kts 207°
2026-04-30 12:34 49.65315 -2.41565 6393 ft 257 kts 207°
2026-04-30 12:35 49.63787 -2.42935 6279 ft 251 kts 207°
2026-04-30 12:35 49.62296 -2.44275 6184 ft 245 kts 207°
2026-04-30 12:35 49.60846 -2.45573 6096 ft 237 kts 207°
2026-04-30 12:35 49.59449 -2.46823 6045 ft 229 kts 207°
2026-04-30 12:36 49.58079 -2.48040 5906 ft 225 kts 206°
2026-04-30 12:36 49.56727 -2.49232 5704 ft 224 kts 206°
2026-04-30 12:36 49.55387 -2.50402 5501 ft 219 kts 206°
2026-04-30 12:36 49.54070 -2.51522 5294 ft 213 kts 204°
2026-04-30 12:37 49.52764 -2.52555 5065 ft 209 kts 204°
2026-04-30 12:37 49.51493 -2.53557 4822 ft 206 kts 203°
2026-04-30 12:37 49.50227 -2.54550 4588 ft 203 kts 204°
2026-04-30 12:37 49.48974 -2.55517 4319 ft 201 kts 202°
2026-04-30 12:38 49.47714 -2.56449 4150 ft 201 kts 202°
2026-04-30 12:38 49.46490 -2.57489 3956 ft 201 kts 208°
2026-04-30 12:38 49.45324 -2.58648 3786 ft 199 kts 217°
2026-04-30 12:38 49.44474 -2.60336 3578 ft 203 kts 239°
2026-04-30 12:39 49.43968 -2.62379 3396 ft 205 kts 249°
2026-04-30 12:39 49.43682 -2.64542 3235 ft 208 kts 260°
2026-04-30 12:39 49.43529 -2.66741 3048 ft 206 kts 259°
2026-04-30 12:39 49.43336 -2.68932 2795 ft 209 kts 257°
2026-04-30 12:40 49.43153 -2.71143 2587 ft 209 kts 262°
2026-04-30 12:40 49.43052 -2.73366 2406 ft 208 kts 262°
2026-04-30 12:40 49.42953 -2.75561 2253 ft 204 kts 262°
2026-04-30 12:40 49.42841 -2.77726 2072 ft 202 kts 261°
2026-04-30 12:41 49.42713 -2.79901 2032 ft 208 kts 261°
2026-04-30 12:41 49.42606 -2.82132 2013 ft 212 kts 263°
2026-04-30 12:41 49.42872 -2.84360 1958 ft 220 kts 296°
2026-04-30 12:41 49.43825 -2.86204 1944 ft 221 kts 310°
2026-04-30 12:42 49.44824 -2.87978 1945 ft 217 kts 309°
2026-04-30 12:42 49.45798 -2.89707 1973 ft 217 kts 309°
2026-04-30 12:42 49.46775 -2.91476 2000 ft 217 kts 308°
2026-04-30 12:42 49.47752 -2.93249 2010 ft 218 kts 309°
2026-04-30 12:43 49.48738 -2.95045 2045 ft 221 kts 304°
2026-04-30 12:43 49.49196 -2.97251 2069 ft 217 kts 265°
2026-04-30 12:43 49.48744 -2.99364 2079 ft 205 kts 227°
2026-04-30 12:43 49.47622 -3.00528 2098 ft 192 kts 190°
2026-04-30 12:44 49.46338 -3.00319 2091 ft 187 kts 152°
2026-04-30 12:44 49.45392 -2.98968 2088 ft 187 kts 133°
2026-04-30 12:44 49.44542 -2.97443 2089 ft 188 kts 131°
2026-04-30 12:44 49.43699 -2.95917 2086 ft 185 kts 132°
2026-04-30 12:45 49.42885 -2.94477 2054 ft 173 kts 133°
2026-04-30 12:45 49.42332 -2.92864 2045 ft 175 kts 102°
2026-04-30 12:45 49.42313 -2.90980 2091 ft 179 kts 94°
2026-04-30 12:45 49.42308 -2.89075 2088 ft 175 kts 95°
2026-04-30 12:46 49.42317 -2.87220 2106 ft 176 kts 90°
2026-04-30 12:46 49.42422 -2.85327 2092 ft 179 kts 91°
2026-04-30 12:46 49.42525 -2.83415 2071 ft 181 kts 89°
2026-04-30 12:46 49.42611 -2.81472 2068 ft 181 kts 91°
2026-04-30 12:47 49.42700 -2.79587 2062 ft 176 kts 90°
2026-04-30 12:47 49.42801 -2.77796 2015 ft 157 kts 90°
2026-04-30 12:47 49.42886 -2.76241 1969 ft 134 kts 91°
2026-04-30 12:47 49.42951 -2.74840 1951 ft 128 kts 92°
2026-04-30 12:48 49.43013 -2.73492 1843 ft 127 kts 94°
2026-04-30 12:48 49.43073 -2.72165 1692 ft 121 kts 93°
2026-04-30 12:48 49.43142 -2.70876 1563 ft 122 kts 90°
2026-04-30 12:48 49.43227 -2.69595 1435 ft 119 kts 92°
2026-04-30 12:49 49.43290 -2.68329 1285 ft 118 kts 92°
2026-04-30 12:49 49.43341 -2.67081 1095 ft 118 kts 90°
2026-04-30 12:49 49.43396 -2.65806 928 ft 120 kts 90°
2026-04-30 12:49 49.43394 -2.64524 785 ft 121 kts 92°
2026-04-30 12:50 49.43421 -2.63228 608 ft 119 kts 89°
2026-04-30 12:50 49.43454 -2.61976 412 ft 119 kts 89°
2026-04-30 12:50 49.43484 -2.60741 312 ft 105 kts 90°
2026-04-30 12:50 49.43503 -2.59935 321 ft 35 kts 88°
2026-04-30 12:51 49.43510 -2.59704 328 ft 15 kts 87°
2026-04-30 12:51 49.43514 -2.59593 331 ft 9 kts 87°
2026-04-30 12:51 49.43516 -2.59490 333 ft 11 kts 88°
2026-04-30 12:51 49.43519 -2.59358 335 ft 14 kts 88°
2026-04-30 12:52 49.43503 -2.59214 333 ft 13 kts 150°
2026-04-30 12:52 49.43425 -2.59196 330 ft 11 kts 181°
2026-04-30 12:52 49.43373 -2.59261 335 ft 12 kts 261°
2026-04-30 12:52 49.43368 -2.59417 334 ft 17 kts 267°
2026-04-30 12:53 49.43364 -2.59556 331 ft 13 kts 267°